Regional Weather Roundup
Issued by NWS

Home | Current Version | Previous Version | Text Only | Print | Product List | Glossary On
Versions: 1 2 3 4 5 6 7 8 9 10 11 12 13 14 15 16 17 18 19 20 21 22 23 24 25 26 27
000
ASPQ40 PGUM 201412
RWRPQ
WEATHER ROUNDUP FOR THE MARIANAS AND MICRONESIA
NATIONAL WEATHER SERVICE TIYAN GU
1200 AM CHST TUE FEB 21 2017

GUZ001>004-201500-
MARIANA ISLANDS-

CITY           SKY/WX    TMP DP  RH WIND       PRES   REMARKS
GUAM AIRPORT   CLOUDY    79  75  89 E12       29.97S
ANDERSEN AFB   MOCLDY    77  73  88 E17       29.98F
ROTA AIRPORT   NOT AVBL
TINIAN AP      NOT AVBL
SAIPAN AP      MOCLDY    79  73  83 E15       29.98F

$$

PMZ161-201500-
REPUBLIC OF PALAU-

CITY           SKY/WX    TMP DP  RH WIND       PRES   REMARKS
KOROR AP       NOT AVBL
KOROR WSO      CLOUDY    81  77  89 E8        29.90R

$$

PMZ171>174-201500-
FEDERATED STATES OF MICRONESIA-

CITY           SKY/WX    TMP DP  RH WIND       PRES   REMARKS
YAP AIRPORT    CLOUDY    81  75  83 E8        29.88F
CHUUK AP       CLOUDY    81  79  94 N13       29.86F
POHNPEI AP     NOT AVBL
POHNPEI WSO    CLOUDY    82  75  78 E6        29.90F
KOSRAE AP      NOT AVBL

$$

PMZ181-201500-
REPUBLIC OF THE MARSHALL ISLANDS-

CITY           SKY/WX    TMP DP  RH WIND       PRES   REMARKS
KWAJALEIN AP   PTCLDY    81  72  74 E16       29.86F
MAJURO AP      NOT AVBL
MAJURO WSO     MOCLDY    82  75  78 NE20      29.83S

$$





USA.gov is the U.S. government's official web portal to all federal, state and local government web resources and services.